Falls City, NE

1:47 PM CDT on May 20, 2018 (GMT -0500)
Brenner

Weather History for KFNB - January, 2012

Change the Weather History Date:

Thursday, January 26, 2012

  Actual Average Record
Temperature  
Mean Temperature 36 °F -  
Max Temperature 52 °F 34 °F 66 °F (2002)
Min Temperature 19 °F 14 °F -11 °F (1991)
Degree Days  
Heating Degree Days 30    
Moisture  
Dew Point 24 °F    
Average Humidity 69    
Maximum Humidity 96    
Minimum Humidity 37    
Precipitation  
Precipitation 0.00 in - - ()
Sea Level Pressure  
Sea Level Pressure 29.92 in    
Wind  
Wind Speed 7 mph (NW)    
Max Wind Speed 22 mph    
Max Gust Speed 33 mph    
Visibility 8 miles    
Events      
Averages and records for this station are not official NWS values.
T = Trace of Precipitation, MM = Missing Value Source: NWS Daily Summary

Daily Weather History Graph

Daily Weather History Graph

Search for Another Location

Airport or City:

Astronomy

Jan. 26, 2012 Rise Set
Actual Time 7:36 AM CST 5:33 PM CST
Civil Twilight 7:07 AM CST 6:02 PM CST
Nautical Twilight 6:34 AM CST 6:35 PM CST
Astronomical Twilight 6:02 AM CST 7:07 PM CST
Moon 9:04 AM CST (1/26) 9:27 PM CST (1/26)
Length of Visible Light 10h 55m
Length of Day
9h 57m
Waxing Crescent, 12% of the Moon is Illuminated
Jan 26
Waxing Crescent
Jan 30
First Quarter
Feb 7
Full
Feb 14
Last Quarter
Feb 21
New

Hourly Weather History & Observations

Time (CST) Temp. Windchill Dew Point Humidity Pressure Visibility Wind Dir Wind Speed Gust Speed Precip Events Conditions
12:53 AM 25.0 °F - 21.9 °F 88% 29.94 in 5.0 mi Calm Calm - N/A   Clear
1:53 AM 23.0 °F - 19.9 °F 88% 29.95 in 4.0 mi Calm Calm - N/A   Clear
2:53 AM 19.9 °F 13.4 °F 18.0 °F 92% 29.94 in 3.0 mi NNW 4.6 mph - N/A   Clear
3:53 AM 21.0 °F 13.4 °F 19.0 °F 92% 29.92 in 4.0 mi NW 5.8 mph - N/A   Clear
4:53 AM 21.0 °F 14.6 °F 19.9 °F 96% 29.93 in 4.0 mi WNW 4.6 mph - N/A   Clear
5:53 AM 21.0 °F 10.6 °F 19.0 °F 92% 29.93 in 5.0 mi WNW 9.2 mph - N/A   Clear
6:53 AM 23.0 °F 14.7 °F 19.9 °F 88% 29.95 in 8.0 mi WNW 6.9 mph - N/A   Clear
7:53 AM 26.6 °F 22.6 °F 23.0 °F 86% 29.94 in 10.0 mi West 3.5 mph - N/A   Clear
8:53 AM 34.0 °F 26.0 °F 28.9 °F 82% 29.96 in 10.0 mi WNW 10.4 mph - N/A   Overcast
9:53 AM 39.9 °F 34.5 °F 30.9 °F 70% 29.94 in 10.0 mi WNW 8.1 mph - N/A   Clear
10:53 AM 50.0 °F - 26.1 °F 39% 29.90 in 10.0 mi NW 19.6 mph 29.9 mph N/A   Clear
11:53 AM 50.0 °F - 27.0 °F 41% 29.89 in 10.0 mi NW 21.9 mph 33.4 mph N/A   Clear
12:53 PM 52.0 °F - 26.1 °F 37% 29.87 in 10.0 mi NW 16.1 mph 29.9 mph N/A   Clear
1:53 PM 51.1 °F - 26.1 °F 38% 29.87 in 10.0 mi NW 15.0 mph 33.4 mph N/A   Clear
2:53 PM 51.1 °F - 27.0 °F 39% 29.87 in 10.0 mi NNW 15.0 mph 31.1 mph N/A   Clear
3:53 PM 50.0 °F - 27.0 °F 41% 29.87 in 10.0 mi NW 17.3 mph 26.5 mph N/A   Clear
4:53 PM 48.0 °F - 26.1 °F 42% 29.88 in 10.0 mi NNW 15.0 mph 23.0 mph N/A   Clear
5:53 PM 43.0 °F 38.2 °F 26.1 °F 51% 29.91 in 10.0 mi NNW 8.1 mph - N/A   Clear
6:53 PM 35.1 °F 29.3 °F 24.1 °F 64% 29.93 in 10.0 mi NW 6.9 mph - N/A   Clear
7:53 PM 32.0 °F 24.8 °F 24.1 °F 73% 29.94 in 10.0 mi WNW 8.1 mph - N/A   Clear
8:53 PM 30.0 °F 22.4 °F 23.0 °F 75% 29.93 in 10.0 mi WNW 8.1 mph - N/A   Clear
9:53 PM 30.0 °F 25.2 °F 23.0 °F 75% 29.93 in 10.0 mi NW 4.6 mph - N/A   Clear
10:53 PM 28.0 °F 24.2 °F 21.9 °F 78% 29.92 in 10.0 mi West 3.5 mph - N/A   Clear
11:53 PM 26.1 °F 18.4 °F 21.0 °F 81% 29.94 in 10.0 mi WNW 6.9 mph - N/A   Clear